Location: Newark
(31.9382°N, 81.3138°W)
Time: 17:17:34
(UTC+00:00)

Envisat - Visible Passes

Search period start: 05 April 2020 00:00
Search period end: 15 April 2020 00:00
Orbit: 764 x 766 km, 98.1° (Epoch: 04 April)

Date Brightness Start Highest point End Pass type
(mag) Time Alt. Az. Time Alt. Az. Time Alt. Az.
05 Apr 5.7 00:07:52 10° SSW 00:11:53 24° W 00:15:56 10° NW visible
07 Apr 6.2 00:35:30 10° WSW 00:37:32 12° W 00:39:35 10° WNW visible
08 Apr 6.4 10:33:17 10° ENE 10:34:57 11° E 10:36:38 10° ESE visible
10 Apr 6.0 00:23:00 10° SW 00:26:08 16° W 00:29:17 10° NW visible
13 Apr 5.8 00:10:55 10° SW 00:14:45 21° W 00:18:36 10° NW visible
